Location: Newark
(25.4800°N, 85.7200°E)
Time: 10:18:45
(UTC+00:00)

Vanguard 1 - All Passes

Search period start: 22 August 2019 00:00
Search period end: 01 September 2019 00:00
Orbit: 655 x 3829 km, 34.2° (Epoch: 20 August)

Date Brightness Start Highest point End Pass type
(mag) Time Alt. Az. Time Alt. Az. Time Alt. Az.
22 Aug - 02:16:14 10° SSW 02:24:19 34° SSE 02:29:27 10° E daylight
22 Aug - 04:38:55 10° WSW 04:44:54 61° NNW 04:49:21 10° ENE daylight
22 Aug - 07:01:45 10° WNW 07:05:38 28° N 07:09:54 10° ENE daylight
22 Aug - 09:21:33 10° WNW 09:26:26 63° NNE 09:34:11 10° ESE daylight
22 Aug - 11:41:13 10° W 11:47:33 41° SSW 11:58:31 10° SE daylight
22 Aug - 14:06:18 10° SW 14:11:10 13° SSW 14:17:09 10° S visible
23 Aug - 00:17:20 10° S 00:23:11 15° SSE 00:27:42 10° ESE daylight
23 Aug - 02:36:55 10° SW 02:45:33 49° SSE 02:50:46 10° ENE daylight
23 Aug - 05:00:32 10° W 05:06:00 44° NNW 05:10:16 10° NE daylight
23 Aug - 07:22:58 10° NW 07:26:55 30° N 07:31:26 10° ENE daylight
23 Aug - 09:42:28 10° WNW 09:47:31 86° NNE 09:55:49 10° ESE daylight
23 Aug - 12:02:46 10° W 12:08:57 30° SSW 12:18:56 10° SSE daylight
24 Aug - 00:36:11 10° SSW 00:44:50 22° SSE 00:50:40 10° ESE daylight
24 Aug - 02:58:01 10° SW 03:06:41 71° SSE 03:11:52 10° ENE daylight
24 Aug - 05:22:13 10° W 05:27:09 34° NNW 05:31:14 10° NE daylight
24 Aug - 07:44:03 10° NW 07:48:08 35° NNE 07:53:06 10° E daylight
24 Aug - 10:03:26 10° WNW 10:08:36 68° SSW 10:17:11 10° SE daylight
24 Aug - 12:24:51 10° WSW 12:30:30 21° SSW 12:38:43 10° SSE daylight
25 Aug - 00:56:04 10° SSW 01:06:20 31° SSE 01:12:38 10° E daylight
25 Aug - 03:19:26 10° WSW 03:27:46 83° NNW 03:32:50 10° ENE daylight
25 Aug - 05:43:53 10° WNW 05:48:24 30° N 05:52:20 10° NE daylight
25 Aug - 08:05:01 10° NW 08:09:18 45° NNE 08:14:47 10° E daylight
25 Aug - 10:24:34 10° W 10:29:44 47° SSW 10:38:14 10° SE daylight
25 Aug - 12:48:02 10° SW 12:52:09 14° SSW 12:57:17 10° S daylight
25 Aug - 22:57:19 10° S 23:04:10 14° SSE 23:09:34 10° ESE visible
26 Aug - 01:16:34 10° SW 01:27:44 43° SSE 01:34:08 10° E daylight
26 Aug - 03:41:05 10° WSW 03:48:50 61° NNW 03:53:43 10° ENE daylight
26 Aug - 06:05:25 10° WNW 06:09:41 28° N 06:13:34 10° ENE daylight
26 Aug - 08:25:56 10° WNW 08:30:22 64° NNE 08:36:23 10° ESE daylight
26 Aug - 10:45:56 10° W 10:50:59 32° SSW 10:58:51 10° SSE daylight
26 Aug - 23:15:36 10° SSW 23:25:59 21° SSE 23:33:09 10° ESE visible
27 Aug - 01:37:31 10° SW 01:49:01 59° SSE 01:55:20 10° ENE daylight
27 Aug - 04:02:55 10° W 04:09:57 46° NNW 04:14:37 10° NE daylight
27 Aug - 06:26:46 10° WNW 06:30:58 30° N 06:34:59 10° ENE daylight
27 Aug - 08:46:53 10° WNW 08:51:24 87° SSW 08:57:47 10° ESE daylight
27 Aug - 11:07:43 10° WSW 11:12:20 21° SSW 11:18:54 10° SSE daylight
27 Aug - 23:35:08 10° SSW 23:47:41 29° SSE 23:55:29 10° E visible
28 Aug - 01:58:51 10° WSW 02:10:13 79° SSE 02:16:23 10° ENE daylight
28 Aug - 04:24:48 10° W 04:31:08 38° NNW 04:35:34 10° NE daylight
28 Aug - 06:47:56 10° NW 06:52:13 35° NNE 06:56:29 10° E daylight
28 Aug - 09:07:55 10° WNW 09:12:26 57° SSW 09:18:55 10° SE daylight
28 Aug - 11:30:28 10° SW 11:33:47 14° SSW 11:37:54 10° S daylight
28 Aug - 21:37:29 10° S 21:44:23 13° SSE 21:50:09 10° SE visible
28 Aug - 23:55:22 10° SSW 00:09:15 39° SSE 00:17:14 10° E daylight
29 Aug - 02:20:29 10° WSW 02:31:21 80° NNW 02:37:19 10° ENE daylight
29 Aug - 04:46:39 10° WNW 04:52:23 33° N 04:56:37 10° ENE daylight
29 Aug - 07:09:00 10° WNW 07:13:23 46° NNE 07:17:58 10° E daylight
29 Aug - 09:29:10 10° W 09:33:31 36° SSW 09:39:42 10° SE daylight
29 Aug - 21:54:48 10° S 22:06:24 20° SSE 22:14:52 10° ESE visible
30 Aug - 00:16:06 10° SW 00:30:42 52° SSE 00:38:38 10° ENE daylight
30 Aug - 02:42:22 10° WSW 02:52:30 63° NNW 02:58:13 10° ENE daylight
30 Aug - 05:08:22 10° WNW 05:13:41 31° N 05:17:47 10° ENE daylight
30 Aug - 07:30:00 10° WNW 07:34:27 67° NNE 07:39:22 10° ESE daylight
30 Aug - 09:50:44 10° W 09:54:41 23° SSW 09:59:59 10° SSE daylight
30 Aug - 22:13:51 10° SSW 22:28:15 27° SSE 22:37:47 10° E visible
31 Aug - 00:37:15 10° SW 00:52:02 67° SSE 00:59:48 10° ENE daylight
31 Aug - 03:04:25 10° W 03:13:41 51° NNW 03:19:08 10° ENE daylight
31 Aug - 05:29:53 10° WNW 05:35:01 33° N 05:39:05 10° ENE daylight
31 Aug - 07:51:02 10° WNW 07:55:28 79° SSW 08:00:34 10° ESE daylight
31 Aug - 10:13:05 10° WSW 10:15:56 14° SSW 10:19:24 10° S daylight
31 Aug - 20:19:33 10° SSE 20:23:51 11° SSE 20:27:49 10° SE visible
31 Aug - 22:33:43 10° SSW 22:49:58 36° SSE 22:59:53 10° E visible
